Date String (YYYY-MM-DD hh:mm:ss) UTC,Instrument flags,absolute air pressure of the measurement (hPa),sample flow rate (lpm),inlet stack bypass flow (lpm),air temperature of the measurement (°C),ambient temperature measured by the external sensor (°C),aerosol sample conditioner tube jacket temperature (°C),OPC LED temperature (°C),internal box temperature (°C),relative humidity of the measurement (%),span deviation,mass concentration of particles derived from Lorenz-Mie calculation of OPC scattering (μg/m³),mass concentration of particles derived from Lorenz-Mie calculation of OPC scattering (μg/m³),mass concentration of particles derived from Lorenz-Mie calculation of OPC scattering (μg/m³)
DateTimeUTC,F1_M11,P_M11,Q1_M11,Q2_M11,T1_M11,T2_M11,T3_M11,T4_M11,T5_M11,U1_M11,ZSPAN_M11,X0_M11,X2_M11,X1_M11
2024-04-06 12:00:00,SystemResetWarning,0809.2,5.00,000.00,021.4,020.4,000.0,030.0,023.0,012.4,0000.0,0014.74,0001.86,0000.53
2024-04-06 12:01:00,SystemResetWarning,0809.2,5.00,000.00,021.4,020.4,000.0,030.0,023.0,012.3,0000.0,0014.04,0001.86,0000.54
2024-04-06 12:02:00,SystemResetWarning,0809.2,5.00,000.00,021.4,020.4,000.0,029.9,022.9,012.3,0000.0,0012.90,0001.79,0000.53
2024-04-06 12:03:00,SystemResetWarning,0809.2,5.00,000.00,021.4,020.3,000.0,029.9,022.9,012.3,0000.0,0012.50,0001.78,0000.52
2024-04-06 12:04:00,SystemResetWarning,0809.1,5.00,000.00,021.3,020.3,000.0,029.9,022.9,012.2,0000.0,0010.81,0001.73,0000.50
2024-04-06 12:05:00,SystemResetWarning,0809.3,5.00,000.00,021.3,020.3,000.0,029.9,022.9,012.1,0000.0,0009.64,0001.76,0000.50
2024-04-06 12:06:00,SystemResetWarning,0809.2,5.00,000.00,021.3,020.3,000.0,029.8,022.8,012.0,0000.0,0009.71,0001.70,0000.48
2024-04-06 12:07:00,SystemResetWarning,0809.2,5.00,000.00,021.3,020.3,000.0,029.8,022.8,012.0,0000.0,0009.02,0001.64,0000.47
2024-04-06 12:08:00,SystemResetWarning,0809.1,5.00,000.00,021.3,020.2,000.0,029.8,022.9,012.1,0000.0,0008.98,0001.63,0000.47
2024-04-06 12:09:00,SystemResetWarning,0809.2,5.00,000.00,021.2,020.2,000.0,029.8,022.8,012.0,0000.0,0008.65,0001.59,0000.46
2024-04-06 12:10:00,SystemResetWarning,0809.1,5.00,000.00,021.2,020.2,000.0,029.8,022.8,011.8,0000.0,0008.79,0001.50,0000.46
2024-04-06 12:11:00,SystemResetWarning,0809.1,5.00,000.00,021.2,020.2,000.0,029.7,022.7,011.7,0000.0,0008.20,0001.47,0000.46
2024-04-06 12:12:00,SystemResetWarning,0809.1,5.00,000.00,021.2,020.2,000.0,029.7,022.7,011.7,0000.0,0007.98,0001.47,0000.46
2024-04-06 12:13:00,SystemResetWarning,0809.3,5.00,000.00,021.1,020.1,000.0,029.7,022.7,011.7,0000.0,0008.06,0001.44,0000.46
2024-04-06 12:14:00,SystemResetWarning,0809.3,5.00,000.00,021.1,020.1,000.0,029.7,022.7,011.8,0000.0,0008.67,0001.42,0000.47
2024-04-06 12:15:00,SystemResetWarning,0809.3,4.99,000.00,021.1,020.1,000.0,029.6,022.7,011.8,0000.0,0008.75,0001.44,0000.48
2024-04-06 12:16:00,SystemResetWarning,0809.4,5.00,000.00,021.1,020.1,000.0,029.6,022.7,011.8,0000.0,0009.01,0001.55,0000.50
2024-04-06 12:17:00,SystemResetWarning,0809.6,5.00,000.00,021.1,020.1,000.0,029.6,022.7,011.8,0000.0,0009.27,0001.59,0000.51
2024-04-06 12:18:00,SystemResetWarning,0809.5,5.00,000.00,021.1,020.1,000.0,029.6,022.7,011.7,0000.0,0010.01,0001.77,0000.53
2024-04-06 12:19:00,SystemResetWarning,0809.4,5.00,000.00,021.0,020.1,000.0,029.6,022.6,011.6,0000.0,0010.09,0001.91,0000.55
2024-04-06 12:20:00,SystemResetWarning,0809.2,5.00,000.00,021.0,020.1,000.0,029.6,022.6,011.7,0000.0,0009.98,0001.96,0000.57
2024-04-06 12:21:00,SystemResetWarning,0809.1,5.01,000.00,021.0,020.0,000.0,029.5,022.6,011.6,0000.0,0010.08,0002.10,0000.58
2024-04-06 12:22:00,SystemResetWarning,0809.3,5.00,000.00,021.0,020.0,000.0,029.5,022.6,011.7,0000.0,0010.25,0002.30,0000.59
2024-04-06 12:23:00,SystemResetWarning,0809.6,5.00,000.00,021.0,020.0,000.0,029.5,022.6,011.6,0000.0,0010.95,0002.45,0000.60
2024-04-06 12:24:00,SystemResetWarning,0809.6,5.00,000.00,021.0,020.0,000.0,029.5,022.5,011.7,0000.0,0011.50,0002.55,0000.61
2024-04-06 12:25:00,SystemResetWarning,0809.6,5.00,000.00,020.9,020.0,000.0,029.5,022.5,011.8,0000.0,0010.83,0002.55,0000.62
2024-04-06 12:26:00,SystemResetWarning,0809.6,5.00,000.00,020.9,020.0,000.0,029.5,022.5,012.0,0000.0,0010.96,0002.54,0000.63
2024-04-06 12:27:00,SystemResetWarning,0809.6,4.99,000.00,020.9,020.0,000.0,029.4,022.5,012.2,0000.0,0010.74,0002.43,0000.62
2024-04-06 12:28:00,SystemResetWarning,0809.5,4.99,000.00,020.9,020.0,000.0,029.4,022.6,012.3,0000.0,0010.47,0002.38,0000.61
2024-04-06 12:29:00,SystemResetWarning,0809.5,5.00,000.00,020.9,020.0,000.0,029.4,022.6,012.2,0000.0,0009.58,0002.19,0000.60
2024-04-06 12:30:00,SystemResetWarning,0809.4,5.00,000.00,020.9,020.0,000.0,029.4,022.6,012.2,0000.0,0009.76,0002.07,0000.60
2024-04-06 12:31:00,SystemResetWarning,0809.4,5.01,000.00,020.9,020.0,000.0,029.4,022.5,012.0,0000.0,0009.84,0002.08,0000.59
2024-04-06 12:32:00,SystemResetWarning,0809.4,4.99,000.00,020.9,020.0,000.0,029.4,022.5,012.1,0000.0,0010.22,0002.06,0000.59
2024-04-06 12:33:00,SystemResetWarning,0809.5,4.99,000.00,020.9,020.0,000.0,029.4,022.5,012.1,0000.0,0009.96,0001.87,0000.59
2024-04-06 12:34:00,SystemResetWarning,0809.6,5.01,000.00,020.8,019.9,000.0,029.4,022.5,012.2,0000.0,0009.68,0001.77,0000.59
2024-04-06 12:35:00,SystemResetWarning,0809.6,5.01,000.00,020.8,019.9,000.0,029.4,022.5,012.1,0000.0,0008.83,0001.72,0000.61
2024-04-06 12:36:00,SystemResetWarning,0809.6,5.00,000.00,020.8,019.9,000.0,029.4,022.5,012.1,0000.0,0009.45,0001.70,0000.62
2024-04-06 12:37:00,SystemResetWarning,0809.5,4.99,000.00,020.8,019.9,000.0,029.3,022.5,012.0,0000.0,0009.11,0001.71,0000.61
2024-04-06 12:38:00,SystemResetWarning,0809.6,5.01,000.00,020.8,019.9,000.0,029.3,022.4,012.1,0000.0,0008.69,0001.73,0000.61
2024-04-06 12:39:00,SystemResetWarning,0809.6,5.01,000.00,020.8,019.9,000.0,029.3,022.4,012.4,0000.0,0008.72,0001.79,0000.63
2024-04-06 12:40:00,SystemResetWarning,0809.5,4.99,000.00,020.8,019.9,000.0,029.3,022.4,012.5,0000.0,0008.49,0001.83,0000.63
2024-04-06 12:41:00,SystemResetWarning,0809.5,4.99,000.00,020.8,019.9,000.0,029.3,022.4,012.5,0000.0,0008.37,0001.90,0000.64
2024-04-06 12:42:00,SystemResetWarning,0809.3,5.00,000.00,020.8,019.8,000.0,029.3,022.4,012.5,0000.0,0007.92,0001.94,0000.66
2024-04-06 12:43:00,SystemResetWarning,0809.3,5.01,000.00,020.7,019.8,000.0,029.2,022.4,012.4,0000.0,0007.36,0001.94,0000.67
2024-04-06 12:44:00,SystemResetWarning,0809.4,5.01,000.00,020.7,019.8,000.0,029.2,022.3,012.3,0000.0,0007.33,0002.06,0000.67
2024-04-06 12:45:00,SystemResetWarning,0809.5,5.00,000.00,020.7,019.8,000.0,029.2,022.3,012.5,0000.0,0007.39,0002.08,0000.67
2024-04-06 12:46:00,SystemResetWarning,0809.4,4.99,000.00,020.7,019.8,000.0,029.2,022.3,012.6,0000.0,0007.47,0002.06,0000.66
2024-04-06 12:47:00,SystemResetWarning,0809.3,4.99,000.00,020.7,019.7,000.0,029.2,022.2,012.6,0000.0,0006.83,0002.07,0000.67
2024-04-06 12:48:00,SystemResetWarning,0809.5,5.00,000.00,020.6,019.7,000.0,029.2,022.2,012.6,0000.0,0006.73,0002.11,0000.68
2024-04-06 12:49:00,SystemResetWarning,0809.6,5.01,000.00,020.6,019.7,000.0,029.1,022.2,012.7,0000.0,0006.90,0002.13,0000.69
2024-04-06 12:50:00,SystemResetWarning,0809.5,5.00,000.00,020.6,019.7,000.0,029.1,022.2,012.6,0000.0,0009.27,0002.16,0000.70
2024-04-06 12:51:00,SystemResetWarning,0809.5,5.00,000.00,020.6,019.7,000.0,029.1,022.1,012.6,0000.0,0009.85,0002.16,0000.70
2024-04-06 12:52:00,SystemResetWarning,0809.4,5.00,000.00,020.6,019.6,000.0,029.1,022.1,012.5,0000.0,0009.64,0002.07,0000.70
2024-04-06 12:53:00,SystemResetWarning,0809.4,5.00,000.00,020.5,019.6,000.0,029.1,022.0,012.5,0000.0,0009.60,0002.06,0000.70
2024-04-06 12:54:00,SystemResetWarning,0809.5,5.01,000.00,020.5,019.6,000.0,029.0,022.0,012.5,0000.0,0009.60,0002.01,0000.71
2024-04-06 12:55:00,SystemResetWarning,0809.5,5.00,000.00,020.5,019.5,000.0,029.0,022.0,012.5,0000.0,0010.22,0001.88,0000.70
2024-04-06 12:56:00,SystemResetWarning,0809.6,5.01,000.00,020.5,019.5,000.0,029.0,022.0,012.4,0000.0,0010.72,0001.89,0000.71
2024-04-06 12:57:00,SystemResetWarning,0809.6,5.00,000.00,020.5,019.5,000.0,029.0,022.0,012.4,0000.0,0010.86,0001.95,0000.72
2024-04-06 12:58:00,SystemResetWarning,0809.4,5.00,000.00,020.4,019.5,000.0,029.0,022.0,012.4,0000.0,0011.62,0002.07,0000.73
2024-04-06 12:59:00,SystemResetWarning,0809.5,5.00,000.00,020.4,019.4,000.0,028.9,021.9,012.5,0000.0,0011.74,0002.05,0000.73
